Weather History for KSFF - February, 2014

Change the Weather History Date:

Sunday, February 2, 2014

  Actual Average Record
Temperature  
Mean Temperature 28 °F 33 °F  
Max Temperature 30 °F 39 °F 55 °F (2005)
Min Temperature 25 °F 27 °F 13 °F (2011)
Degree Days  
Heating Degree Days 37 32  
Month to date heating degree days 81 64  
Since 1 July heating degree days 3746 3776  
Cooling Degree Days 0 0  
Month to date cooling degree days 0 0  
Year to date cooling degree days 0 0  
Moisture  
Dew Point 22 °F    
Average Humidity 77    
Maximum Humidity 84    
Minimum Humidity 69    
Precipitation  
Precipitation 0.01 in 0.07 in 0.26 in (2006)
Month to date precipitation 0.01 0.13  
Year to date precipitation 1.16 2.08  
Sea Level Pressure  
Sea Level Pressure 29.98 in    
Wind  
Wind Speed 2 mph (WNW)    
Max Wind Speed 8 mph    
Max Gust Speed 12 mph    
Visibility 6 miles    
Events Snow    
T = Trace of Precipitation, MM = Missing Value Source: NWS Daily Summary

Daily Weather History Graph

Daily Weather History Graph

Search for Another Location

Airport or City:

Trip Planner

Search our weather history database for the weather conditions in past years. The results will help you decide how hot, cold, wet, or windy it might be!

Date:

Astronomy

Feb. 02, 2014 Rise Set
Actual Time 7:14 AM PST 4:52 PM PST
Civil Twilight 6:41 AM PST 5:25 PM PST
Nautical Twilight 6:04 AM PST 6:01 PM PST
Astronomical Twilight 5:28 AM PST 6:38 PM PST
Moon 8:26 AM PST 9:01 PM PST
Length of Visible Light 10h 43m
Length of Day
9h 37m
Waxing Crescent, 12% of the Moon is Illuminated
Feb 2
Waxing Crescent
Feb 6
First Quarter
Feb 14
Full
Feb 22
Last Quarter
Mar 1
New

Hourly Weather History & Observations

Time (PST) Temp. Windchill Dew Point Humidity Pressure Visibility Wind Dir Wind Speed Gust Speed Precip Events Conditions
12:53 AM 27.0 °F - 21.9 °F 81% 30.14 in 10.0 mi Calm Calm - N/A   Overcast
1:53 AM 26.1 °F 19.4 °F 21.0 °F 81% 30.14 in 10.0 mi North 5.8 mph - N/A   Overcast
2:53 AM 26.1 °F - 21.0 °F 81% 30.13 in 10.0 mi Calm Calm - N/A   Overcast
3:53 AM 26.1 °F 20.5 °F 21.0 °F 81% 30.12 in 10.0 mi North 4.6 mph - N/A   Overcast
4:53 AM 26.1 °F 19.4 °F 19.9 °F 78% 30.11 in 10.0 mi West 5.8 mph - N/A   Overcast
5:53 AM 26.1 °F - 21.0 °F 81% 30.09 in 10.0 mi Calm Calm - N/A   Overcast
6:53 AM 26.1 °F - 19.9 °F 78% 30.09 in 10.0 mi Calm Calm - N/A   Overcast
7:53 AM 26.1 °F - 19.9 °F 78% 30.09 in 10.0 mi Calm Calm - N/A   Overcast
8:53 AM 27.0 °F - 21.0 °F 78% 30.09 in 10.0 mi Calm Calm - N/A   Overcast
9:53 AM 28.0 °F - 21.9 °F 78% 30.09 in 10.0 mi Calm Calm - N/A   Overcast
10:53 AM 28.0 °F - 21.9 °F 78% 30.07 in 10.0 mi Calm Calm - N/A   Overcast
11:53 AM 28.9 °F - 21.9 °F 75% 30.04 in 10.0 mi Calm Calm - N/A   Overcast
12:53 PM 30.0 °F - 21.9 °F 72% 30.01 in 10.0 mi Calm Calm - N/A   Overcast
1:53 PM 28.9 °F 23.9 °F 23.0 °F 78% 30.00 in 10.0 mi WNW 4.6 mph - N/A   Overcast
2:53 PM 30.0 °F 25.2 °F 24.1 °F 79% 30.00 in 10.0 mi North 4.6 mph - 0.00 in   Overcast
3:53 PM 28.9 °F 23.9 °F 24.1 °F 82% 29.99 in 6.0 mi NNE 4.6 mph - 0.00 in Snow Light Snow
4:53 PM 28.9 °F - 23.0 °F 78% 29.98 in 9.0 mi Calm Calm - 0.00 in   Overcast
5:23 PM 28.9 °F - 23.0 °F 78% 29.92 in 10.0 mi Calm Calm - N/A   Overcast
5:53 PM 28.0 °F 20.8 °F 23.0 °F 81% 29.97 in 7.0 mi NNW 6.9 mph - N/A   Overcast
6:53 PM 28.0 °F - 23.0 °F 81% 29.96 in 5.0 mi Calm Calm - 0.00 in Snow Light Snow
7:53 PM 27.0 °F - 23.0 °F 85% 29.95 in 4.0 mi Calm Calm - 0.00 in Snow Light Snow
8:10 PM 27.0 °F - 23.0 °F 85% 29.89 in 4.0 mi Calm Calm - 0.00 in Snow Light Snow
8:19 PM 27.0 °F 20.5 °F 21.9 °F 81% 29.88 in 4.0 mi NNW 5.8 mph - 0.00 in Snow Light Snow
8:43 PM 27.0 °F 23.0 °F 21.9 °F 81% 29.88 in 2.5 mi Variable 3.5 mph - 0.00 in Snow Light Snow
8:51 PM 26.6 °F - 21.2 °F 80% 29.88 in 1.2 mi Calm Calm - 0.00 in Snow Light Snow
8:53 PM 27.0 °F - 21.9 °F 81% 29.94 in 1.5 mi Calm Calm - 0.00 in Snow Light Snow
9:02 PM 27.0 °F 23.0 °F 21.9 °F 81% 29.88 in 2.5 mi Variable 3.5 mph - 0.00 in Snow Light Snow
9:36 PM 26.1 °F - 21.9 °F 84% 29.88 in 1.5 mi Calm Calm - 0.01 in Snow Light Snow
9:40 PM 26.1 °F 21.9 °F 21.9 °F 84% 29.88 in 2.0 mi SSW 3.5 mph - 0.01 in Snow Light Snow
9:53 PM 26.1 °F - 21.9 °F 84% 29.94 in 4.0 mi Calm Calm - 0.01 in Snow Light Snow
10:01 PM 26.1 °F - 21.9 °F 84% 29.88 in 5.0 mi Calm Calm - 0.00 in Snow Light Snow
10:53 PM 26.1 °F 20.5 °F 21.9 °F 84% 29.95 in 4.0 mi WSW 4.6 mph - 0.00 in Snow Light Snow
11:02 PM 26.1 °F 21.9 °F 21.9 °F 84% 29.89 in 3.0 mi WSW 3.5 mph - 0.00 in Snow Light Snow
11:22 PM 26.1 °F 20.5 °F 21.9 °F 84% 29.89 in 2.0 mi West 4.6 mph - 0.00 in Snow Light Snow
11:26 PM 26.1 °F 21.9 °F 21.9 °F 84% 29.89 in 1.8 mi WNW 3.5 mph - 0.00 in Snow Light Snow
11:53 PM 25.0 °F 19.3 °F 21.9 °F 88% 29.95 in 1.8 mi WSW 4.6 mph - 0.00 in Snow Light Snow
11:58 PM 25.0 °F 19.3 °F 21.9 °F 88% 29.89 in 2.0 mi West 4.6 mph - 0.00 in Snow Light Snow